Electron 77 Kick Stage

Debris
NORAD ID: 67073 Int'l Des: 2025-297 Owner: RLABN Country: NZ
LEOCIRCULARRETROGRADESSO

Electron 77 Kick Stageについて

説明を読み込み中...

リアルタイム位置

3D地球を読み込み中...

次回通過

高度履歴

Altitude vs Time

uPlot chart will show altitude changes over time

軌道要素

1 67073U 25297B 25352.27601988 .00003960 00000-0 26694-3 0 9994
2 67073 97.4852 139.6762 0011489 300.7259 59.2836 15.07171328 629
Epoch: Dec 18, 2025 • Age: 10 hours

現在のステータス

高度 544.1 km
速度 7.59 km/s
衛星直下点 4.39°N, 168.9°E
打ち上げ日 Dec 14, 2025
運用期間 4 days
タイプ debris

技術仕様

分類 Launch Vehicle Stage
質量 50.00 kg
乾燥質量 50.00 kg
総質量 50.00 kg
長さ 0.40 m
直径 1.20 m
スパン 1.20 m
形状 Trunc cone
製造者 RLABN
バスタイプ Kick Stage
フェーズステータス In Orbit
所有者/国 RLABN/NZ

大規模コンステレーション

Loading constellations...